Location: Unspecified
(0.0000°N, 0.0000°E)
Time: 18:02:08
(UTC+00:00)

Envisat - Pass Details

Date: 29 September 2022
Orbit: 764 x 765 km, 98.2° (Epoch: 26 September)

Event Time Altitude Azimuth Distance (km) Brightness Sun altitude
Rises 03:20:23 0° 30° (NNE) 3,214 6.5 -37.5°
Reaches altitude 10° 03:22:53 10° 39° (NE) 2,291 5.8 -36.9°
Enters shadow 03:26:15 29° 77° (ENE) 1,363 4.7 -36.0°
Exits shadow 03:33:18 - 171° (S) 2,820 6.0 -34.3°
Sets 03:34:23 0° 174° (S) 3,229 6.3 -34.0°
